Weather History for Wilmington, OH

Change the Weather History Date:

Saturday, July 20, 2013

  Actual Average (KDAY) Record (KDAY)
Temperature  
Mean Temperature 78 °F 74 °F  
Max Temperature 88 °F 84 °F 101 °F (1934)
Min Temperature 69 °F 65 °F 49 °F (1947)
Degree Days  
Heating Degree Days 0 0  
Month to date heating degree days 0  
Since 1 June heating degree days 22  
Since 1 July heating degree days 0  
Cooling Degree Days 13 9  
Month to date cooling degree days 180  
Year to date cooling degree days 440  
Since 1 June cooling degree days 370  
Growing Degree Days 28 (Base 50)    
Moisture  
Dew Point 70 °F    
Average Humidity 89    
Maximum Humidity 100    
Minimum Humidity 58    
Precipitation  
Precipitation 1.31 in 0.12 in 2.46 in (1969)
Month to date precipitation 2.78  
Year to date precipitation 23.99  
Snow  
Snow 0.00 in 0.00 in 0.00 in ()
Month to date snowfall 0.0  
Since 1 June snowfall 0.0  
Since 1 July snowfall 0.0  
Snow Depth -    
Sea Level Pressure  
Sea Level Pressure 29.90 in    
Wind  
Wind Speed 9 mph (WSW)    
Max Wind Speed 17 mph    
Max Gust Speed 26 mph    
Visibility 6 miles    
Events Fog , Rain , Thunderstorm    
T = Trace of Precipitation, MM = Missing Value Source: NWS Daily Summary

Daily Weather History Graph

Daily Weather History Graph

Search for Another Location

Airport:

Trip Planner

Search our weather history database for the weather conditions in past years. The results will help you decide how hot, cold, wet, or windy it might be!

Date:

Astronomy

Jul. 20, 2013 Rise Set
Actual Time 6:24 AM EDT 8:58 PM EDT
Civil Twilight 5:53 AM EDT 9:28 PM EDT
Nautical Twilight 5:15 AM EDT 10:07 PM EDT
Astronomical Twilight 4:31 AM EDT 10:50 PM EDT
Moon 7:00 PM EDT (7/20) 4:03 AM EDT (7/20)
Length of Visible Light 15h 35m
Length of Day
14h 33m
Waxing Gibbous, 93% of the Moon is Illuminated
Jul 20
Waxing Gibbous
Jul 22
Full
Jul 29
Last Quarter
Aug 6
New
Aug 14
First Quarter

Hourly Weather History & Observations

Time (EDT) Temp. Heat Index Dew Point Humidity Pressure Visibility Wind Dir Wind Speed Gust Speed Precip Events Conditions
12:54 AM 75.0 °F - 73.0 °F 94% 29.90 in 5.0 mi SW 8.1 mph - N/A   Clear
1:54 AM 73.9 °F - 72.0 °F 93% 29.90 in 5.0 mi SW 8.1 mph - N/A   Clear
2:54 AM 73.0 °F - 72.0 °F 96% 29.89 in 4.0 mi SSW 8.1 mph - N/A   Clear
3:54 AM 73.9 °F - 71.1 °F 91% 29.87 in 6.0 mi SW 9.2 mph - N/A   Clear
4:54 AM 73.0 °F - 70.0 °F 90% 29.85 in 6.0 mi SW 8.1 mph - N/A   Clear
5:54 AM 72.0 °F - 70.0 °F 93% 29.86 in 6.0 mi SSW 8.1 mph - N/A   Clear
6:54 AM 73.0 °F - 70.0 °F 90% 29.90 in 5.0 mi SW 5.8 mph - N/A   Clear
7:54 AM 75.0 °F - 71.1 °F 87% 29.90 in 6.0 mi SSW 9.2 mph - N/A   Clear
8:54 AM 78.1 °F - 71.1 °F 79% 29.89 in 9.0 mi SW 15.0 mph - N/A   Clear
9:54 AM 81.0 °F 84.9 °F 71.1 °F 72% 29.89 in 10.0 mi WSW 13.8 mph - N/A   Clear
10:54 AM 82.9 °F 87.5 °F 71.1 °F 67% 29.89 in 10.0 mi WSW 15.0 mph 21.9 mph N/A   Clear
11:54 AM 84.0 °F 89.0 °F 71.1 °F 65% 29.89 in 10.0 mi WSW 15.0 mph - N/A   Scattered Clouds
12:54 PM 86.0 °F 91.5 °F 71.1 °F 61% 29.88 in 10.0 mi WSW 17.3 mph 21.9 mph N/A   Partly Cloudy
1:23 PM 87.8 °F 93.8 °F 71.6 °F 58% 29.92 in 10.0 mi WSW 13.8 mph 19.6 mph N/A Thunderstorm Scattered Clouds
1:54 PM 73.9 °F - 66.0 °F 76% 29.90 in 7.0 mi North 11.5 mph 21.9 mph N/A Thunderstorm Thunderstorm
2:31 PM 75.2 °F - 69.8 °F 83% 29.91 in 10.0 mi East 3.5 mph - 0.02 in   Mostly Cloudy
2:46 PM 77.0 °F - 71.6 °F 83% 29.91 in 9.0 mi NE 4.6 mph - 0.02 in Thunderstorm Thunderstorm
2:54 PM 77.0 °F - 73.0 °F 88% 29.86 in 5.0 mi NNE 9.2 mph - 0.03 in Rain , Thunderstorm Light Thunderstorms and Rain
3:07 PM 73.4 °F - 71.6 °F 94% 29.91 in 0.8 mi ENE 4.6 mph - 0.02 in Rain , Thunderstorm Heavy Thunderstorms and Rain
3:12 PM 73.4 °F - 71.6 °F 94% 29.90 in 0.2 mi North 15.0 mph - 0.36 in Fog , Rain , Thunderstorm Heavy Thunderstorms and Rain
3:14 PM 73.4 °F - 71.6 °F 94% 29.89 in 0.2 mi NNW 12.7 mph - 0.39 in Fog , Rain , Thunderstorm Heavy Thunderstorms and Rain
3:19 PM 73.4 °F - 71.6 °F 94% 29.88 in 1.0 mi NE 9.2 mph - 0.43 in Rain , Thunderstorm Heavy Thunderstorms and Rain
3:26 PM 73.4 °F - 71.6 °F 94% 29.92 in 3.0 mi North 12.7 mph - 0.45 in Rain , Thunderstorm Light Thunderstorms and Rain
3:32 PM 73.4 °F - 71.6 °F 94% 29.92 in 1.5 mi NW 12.7 mph 26.5 mph 0.48 in Rain , Thunderstorm Heavy Thunderstorms and Rain
3:36 PM 71.6 °F - 71.6 °F 100% 29.90 in 0.8 mi NNW 11.5 mph 26.5 mph 0.54 in Rain , Thunderstorm Heavy Thunderstorms and Rain
3:43 PM 71.6 °F - 69.8 °F 94% 29.90 in 0.8 mi Variable 3.5 mph 18.4 mph 0.71 in Rain , Thunderstorm Heavy Thunderstorms and Rain
3:45 PM 71.6 °F - 69.8 °F 94% 29.89 in 1.0 mi East 5.8 mph 18.4 mph 0.73 in Rain , Thunderstorm Heavy Thunderstorms and Rain
3:54 PM 71.1 °F - 70.0 °F 96% 29.89 in 1.2 mi SSE 8.1 mph - 0.79 in Rain , Thunderstorm Light Thunderstorms and Rain
4:09 PM 71.6 °F - 69.8 °F 94% 29.91 in 10.0 mi ESE 10.4 mph 17.3 mph 0.00 in Rain , Thunderstorm Light Thunderstorms and Rain
4:54 PM 72.0 °F - 69.1 °F 91% 29.91 in 3.0 mi North 13.8 mph 20.7 mph 0.07 in Rain , Thunderstorm Heavy Thunderstorms and Rain
4:57 PM 71.6 °F - 69.8 °F 94% 29.93 in 1.5 mi North 12.7 mph - 0.02 in Rain , Thunderstorm Heavy Thunderstorms and Rain
5:05 PM 69.8 °F - 69.8 °F 100% 29.93 in 0.5 mi NNE 5.8 mph - 0.35 in Fog , Rain , Thunderstorm Heavy Thunderstorms and Rain
5:12 PM 69.8 °F - 69.8 °F 100% 29.92 in 1.5 mi Calm Calm - 0.39 in Rain , Thunderstorm Thunderstorms and Rain
5:15 PM 69.8 °F - 69.8 °F 100% 29.92 in 3.0 mi Variable 3.5 mph - 0.39 in Rain , Thunderstorm Thunderstorms and Rain
5:26 PM 71.6 °F - 69.8 °F 94% 29.92 in 8.0 mi SSE 9.2 mph - 0.40 in Rain , Thunderstorm Light Thunderstorms and Rain
5:54 PM 71.1 °F - 69.1 °F 93% 29.90 in 10.0 mi ESE 5.8 mph - 0.42 in Rain Light Rain
6:54 PM 72.0 °F - 69.1 °F 91% 29.88 in 10.0 mi Calm Calm - 0.00 in   Clear
7:54 PM 72.0 °F - 69.1 °F 91% 29.88 in 10.0 mi WSW 5.8 mph - N/A   Clear
8:54 PM 70.0 °F - 69.1 °F 97% 29.89 in 9.0 mi South 3.5 mph - N/A   Clear
9:54 PM 70.0 °F - 69.1 °F 97% 29.90 in 9.0 mi SSW 4.6 mph - N/A   Clear
10:54 PM 70.0 °F - 69.1 °F 97% 29.91 in 8.0 mi SSW 3.5 mph - N/A   Scattered Clouds
11:54 PM 70.0 °F - 69.1 °F 97% 29.91 in 7.0 mi Calm Calm - N/A   Mostly Cloudy